Flag for Portugal Weather past 2 weeks in Porto, Portugal

Now
59 °F

Clear.


Feels Like: 59 °F
Forecast: 57 / 72 °F
Wind: 5 mph from South

Location: Porto / Pedras Rubras

Current Time: Aug 1, 2015 at 2:44:57 AM

Latest Report: Aug 1, 2015 at 2:00 AM


Visibility: 10 mi

Pressure: 29.89 "Hg

Humidity: 100%

Dew point: 59 °F

Location of PortoLocation

Historic Weather in Porto — Graph

°F

Porto temperature yesterday

Maximum temperature yesterday: 73 °F (at 2:00 PM)
Minimum temperature yesterday: 63 °F (at 10:30 PM)
Average temperature yesterday: 68 °F

Past Weeks' High & Low Weather Summary

 TemperatureHumidityPressure
High79 °F (Jul 17, 12:00 PM)100% (Jul 17, 1:00 AM)30.12 "Hg (Jul 17, 1:00 AM)
Low52 °F (Jul 25, 6:30 AM)50% (Jul 25, 3:00 PM)29.80 "Hg (Jul 31, 3:00 AM)
Average67 °F86%30.03 "Hg
* Reported Jul 17 1:00 AM — Aug 1 1:30 AM, Porto, Weather by CustomWeather, © 2015

Note: Actual official high and low records may vary slightly from our data, if they occured in-between our weather recording intervals... More about our weather records

Advertising

Porto weather history for previous 24 hours

 ConditionsComfort  
Time TempWeatherWind HumidityBarometerVisibility
1:30 AM
Sat, Aug 1
61 °FClear.3 mph94%29.89 "Hg10 mi
1:00 AM61 °FClear.2 mph94%29.89 "Hg10 mi
12:30 AM61 °FClear.No wind94%29.89 "Hg10 mi
12:00 AM61 °FClear.No wind94%29.89 "Hg10 mi
11:30 PM
Fri, Jul 31
63 °FClear.No wind88%29.89 "Hg10 mi
11:00 PM63 °FClear.2 mph94%29.89 "Hg10 mi
10:30 PM63 °FPassing clouds.6 mph88%29.89 "HgN/A
10:00 PM64 °FClear.7 mph88%29.86 "Hg10 mi
9:30 PM64 °FSunny.10 mph88%29.86 "Hg10 mi
9:00 PM66 °FSunny.10 mph83%29.86 "Hg10 mi
8:30 PM66 °FPassing clouds.7 mph83%29.86 "HgN/A
8:00 PM68 °FPassing clouds.8 mph78%29.83 "HgN/A
7:30 PM70 °FSunny.10 mph73%29.83 "Hg10 mi
7:00 PM72 °FPassing clouds.7 mph69%29.83 "HgN/A
6:30 PM72 °FPassing clouds.9 mph73%29.83 "HgN/A
6:00 PM72 °FPassing clouds.10 mph73%29.83 "HgN/A
5:30 PM72 °FPassing clouds.9 mph73%29.83 "HgN/A
5:00 PM70 °FPassing clouds.10 mph78%29.83 "HgN/A
4:30 PM70 °FPassing clouds.13 mph78%29.86 "HgN/A
4:00 PM72 °FPassing clouds.12 mph73%29.86 "HgN/A
3:30 PM72 °FPassing clouds.13 mph73%29.86 "HgN/A
3:00 PM72 °FPassing clouds.8 mph73%29.83 "HgN/A
2:30 PM73 °FPassing clouds.7 mph74%29.86 "HgN/A
2:00 PM73 °FPassing clouds.7 mph78%29.83 "HgN/A
1:30 PM72 °FPassing clouds.6 mph78%29.86 "HgN/A
1:00 PM72 °FScattered clouds.7 mph83%29.86 "HgN/A
12:30 PM68 °FBroken clouds.6 mph88%29.86 "HgN/A
12:00 PM68 °FBroken clouds.7 mph88%29.86 "Hg6 mi
11:30 AM68 °FBroken clouds.6 mph88%29.83 "Hg4 mi
11:00 AM70 °FPartly sunny.8 mph88%29.83 "HgN/A
10:30 AM70 °FPartly sunny.7 mph88%29.83 "HgN/A
10:00 AM68 °FBroken clouds.7 mph94%29.80 "HgN/A
9:30 AM68 °FBroken clouds.6 mph94%29.83 "HgN/A
9:00 AM66 °FBroken clouds.6 mph94%29.83 "Hg5 mi
8:30 AM66 °FFog.6 mph94%29.83 "Hg3 mi
8:00 AM66 °FFog.6 mph94%29.80 "Hg3 mi
7:30 AM66 °FSprinkles. Fog.6 mph94%29.80 "Hg3 mi
7:00 AM66 °FSprinkles. Fog.5 mph94%29.80 "Hg2 mi
6:30 AM66 °FPartly cloudy.5 mph94%29.80 "Hg4 mi
6:00 AM64 °FPassing clouds.5 mph100%29.80 "Hg4 mi
5:30 AM66 °FPassing clouds.6 mph94%29.80 "Hg6 mi
5:00 AM66 °FPassing clouds.3 mph100%29.80 "Hg4 mi
4:30 AM66 °FFog.2 mph100%29.80 "Hg2 mi
4:00 AM66 °FPassing clouds.No wind100%29.80 "Hg6 mi
3:30 AM66 °FPassing clouds.1 mph100%29.80 "Hg4 mi
3:00 AM66 °FPassing clouds.5 mph100%29.80 "Hg4 mi
2:30 AM66 °FPassing clouds.No wind100%29.83 "Hg5 mi
2:00 AM66 °FPartly cloudy.No wind100%29.83 "HgN/A
Weather by CustomWeather, © 2015

See weather overviewHow to use our weather pages